Location: Mascot Post Office (historical)
(40.2645°N, 99.5462°W)
Time: 01:51:40
(UTC+00:00)

SL-16 R/B - Pass Details

Date: 14 July 2020
Orbit: 840 x 850 km, 71.0° (Epoch: 14 August)

Event Time Altitude Azimuth Distance (km) Brightness Sun altitude
Exits shadow 05:33:19 - 241° (WSW) 2,985 4.9 -26.0°
Reaches altitude 10° 05:34:57 10° 250° (WSW) 2,463 4.6 -26.1°
Maximum altitude 05:39:36 26° 305° (NW) 1,625 4.1 -26.3°
Drops below altitude 10° 05:44:17 10° 1° (N) 2,480 5.6 -26.6°
Sets 05:47:10 0° 14° (NNE) 3,420 6.3 -26.7°
